Regional Weather Roundup
Issued by NWS Upton, NY

Current Version | Previous Version | Graphics & Text | Print | Product List | Glossary Off
Versions: 1 2 3 4 5 6 7 8 9 10 11 12 13 14 15 16 17 18 19 20 21 22 23 24 25 26 27 28 29 30 31 32 33 34 35 36 37 38 39 40 41 42 43 44 45 46 47 48 49 50

434
ASUS41 KOKX 110604
RWROKX

REGIONAL WEATHER ROUNDUP
NATIONAL WEATHER SERVICE NEW YORK NY
100 AM EST THU FEB 11 2016

NOTE: "FAIR" INDICATES FEW OR NO CLOUDS BELOW 12,000 FEET WITH NO
SIGNIFICANT WEATHER AND/OR OBSTRUCTIONS TO VISIBILITY.

NYZ071-072-176-178-NJZ106-104-110700-
NEW YORK CITY METRO AREA


CITY           SKY/WX    TMP DP  RH WIND       PRES   REMARKS
CENTRAL PARK   CLOUDY    30  14  51 W6G22     29.77R WCI  24
LAGUARDIA APRT CLOUDY    32  15  49 W16G26    29.75R WCI  21
KENNEDY INTL   CLOUDY    32  14  47 W13       29.77R WCI  22
NEWARK/LIBERTY CLOUDY    28  18  66 W15       29.77R WCI  16
BRNX BOT. GARD   N/A     32  18  55 W12       29.74F WCI  23
TETERBORO      CLOUDY    30  15  53 W13       29.75R WCI  20
$$

NYZ177-179-078>081-110700-
LONG ISLAND NEW YORK

CITY           SKY/WX    TMP DP  RH WIND       PRES   REMARKS
FARMINGDALE    CLOUDY    32  17  54 W12       29.73S WCI  23
ISLIP          CLOUDY    30  18  60 W8        29.70F WCI  22
SHIRLEY        MOCLDY    28  17  63 W6        29.72S WCI  22
RIVERHEAD        N/A     30  16  55 W3        29.68S
WESTHAMPTON    PTCLDY    25  16  68 W7        29.72F WCI  17
EAST HAMPTON   FAIR      29  20  69 W5        29.70S WCI  24
MONTAUK POINT    N/A     34  22  61 W10G17    29.70S WCI  26
$$

NYZ052-065-067-110700-
HUDSON VALLEY

CITY           SKY/WX    TMP DP  RH WIND       PRES   REMARKS
WHITE PLAINS   CLOUDY    30  18  60 W10G18    29.70S WCI  21
NEWBURGH       NOT AVBL
MONTGOMERY     CLOUDY    27  15  61 W16G24    29.72R WCI  15
POUGHKEEPSIE   CLOUDY    31  17  56 W13       29.71S WCI  21
ALBANY         CLOUDY    27  12  53 NW9       29.70S WCI  18
$$

NJZ001-105-106-008-010-013-015-019>022-104-110700-
NEW JERSEY

CITY           SKY/WX    TMP DP  RH WIND       PRES   REMARKS
NEWARK/LIBERTY CLOUDY    28  18  66 W15       29.77R WCI  16
TETERBORO      CLOUDY    30  15  53 W13       29.75R WCI  20
CALDWELL       CLOUDY    27  17  66 NW13      29.77R WCI  16
MORRISTOWN     CLOUDY    27  18  69 W12G17    29.77R WCI  16
SOMERVILLE     CLOUDY    25  18  74 W8        29.79R WCI  16
SUSSEX         LGT SNOW  25  18  74 W14G24    29.75R WCI  13
ANDOVER          N/A     23  18  81 VRB6      29.76R WCI  16
TRENTON        CLOUDY    26  14  60 W13G22    29.81R WCI  15
MILLVILLE      CLOUDY    26  11  52 W17G26    29.88R WCI  13
ATLANTIC CITY  CLOUDY    26  15  63 W20G29    29.84R WCI  12
WRIGHTSTOWN    CLOUDY    26  15  61 W16G26    29.80R WCI  14
TOMS RIVER     CLOUDY    28  10  47 W21G30    29.81R WCI  15
BELMAR         CLOUDY    28  10  47 NW10      29.78R WCI  19
$$

PAZ047>061-062-071-110700-
EASTERN PENNSYLVANIA

CITY           SKY/WX    TMP DP  RH WIND       PRES   REMARKS
PHILADELPHIA   CLOUDY    26  10  50 W15       29.87R WCI  14
ALLENTOWN      CLOUDY    24  13  62 W13       29.82R WCI  12
SCRANTON       CLOUDY    20   7  57 W9        29.78R WCI   9
$$

CTZ002-004>006-009-010-012-RIZ004-006-007-MAZ004-011-015-110700-
SOUTHERN NEW ENGLAND
 IN CT

CITY           SKY/WX    TMP DP  RH WIND       PRES   REMARKS
BRADLEY INTL   MOCLDY    24  14  65 NW7       29.68S WCI  16
HARTFORD       MOCLDY    30  15  53 NW6       29.70F WCI  24
DANBURY        CLOUDY    30  15  53 W8G17     29.71R WCI  22
WTRBRY/OXFORD  CLOUDY    27  12  54 NW3       29.68S
BRIDGEPORT     CLOUDY    32  21  64 W8        29.71S WCI  25
MERIDEN        CLOUDY    22  18  85 CALM      29.70S
NEW HAVEN      CLOUDY    30  21  69 CALM      29.70F
CHESTER        FAIR      28  19  69 CALM      29.69R
GROTON         MOCLDY    24  24 100 CALM      29.70R
WILLIMANTIC    CLEAR     19  15  84 CALM      29.69S

 IN RI

CITY           SKY/WX    TMP DP  RH WIND       PRES   REMARKS
PROVIDENCE     CLEAR     28  18  66 W6        29.68S WCI  22
BLOCK ISLAND   CLEAR     34  18  51 NW12G18   29.67S WCI  25
WESTERLY       CLEAR     28  20  71 NW3       29.70S

 IN MA

CITY           SKY/WX    TMP DP  RH WIND       PRES   REMARKS
BOSTON         CLEAR     31  20  63 W12       29.65S WCI  22
WORCESTER      CLEAR     22  16  78 W13       29.61S WCI  10
WESTFIELD      MOCLDY    25  15  66 NW5       29.68S WCI  19
PROVINCETOWN   CLOUDY    33  25  72 W18       29.64F WCI  22
NANTUCKET      CLOUDY    35  27  72 W7        29.66S WCI  29
$$

ANZ330-335-338-340-345-350-353-355-110700-
COASTAL MARINE OBSERVATIONS


STATION/POSITION TIME  SKY/WX   TEMP    WIND        PRES    VSBY  WAVE
                                AIR SEA DIR/SP/G                  HT/PER
                 (UTC)          (F)     (DEG/KT/KT) (MB)    (MI)  (FT/S)
NY HARB ENTRANCE 0450            33 43  280/ 23/ 27 1006.6          5/ 4
4S FIRE IS       NOT AVBL
20S FIRE ISLAND  0450            33 44  290/ 21/ 27 1006.6          7/ 6
GREAT SOUTH BAY  NOT AVBL
23SW MTP         0550            36 46  290/ 17/ 21 1005.1          8/11
HUDSON CANYON    0450            36 48              1007.2          8/ 6
KINGS POINT      0500            32 38  330/ 13/ 16 1006.6
EXECUTION ROCKS  NOT AVBL
CENTRAL LI SOUND 0530            35     290/ 14/ 16   N/A           3/ 5
EASTERN LI SOUND 0500            35 41  300/ 12/ 16   N/A
ROBBINS REEF     0500            30     290/ 16/ 20 1006.8
$$


>>>>>>>>>>>>>>>>>>>>>>>>>>>> KEY <<<<<<<<<<<<<<<<<<<<<<<<<<<
>                                                          <
>     SKY/WX - SKY CONDITION/PRESENT WEATHER               <
>     TMP    - TEMPERATURE IN FAHRENHEIT                   <
>     DP     - DEWPOINT IN FAHRENHEIT                      <
>     RH     - RELATIVE HUMIDITY IN PERCENT                <
>     WIND   - DIRECTION AND SPEED IN MPH                  <
>     PRES   - MEAN SEA LEVEL PRESSURE IN INCHES OF HG     <
>     WCI    - WIND CHILL INDEX                            <
>     VSB    - VISIBILITY IN MILES                         <
>     HX     - HEAT INDEX                                  <
>     TC     - TEMPERATURE IN CELSIUS                      <
>     VRB    - VARIABLE WIND DIRECTION                     <
>                                                          <
>>>>>>>>>>>>>>>>>>>>>>>>>>>> KEY <<<<<<<<<<<<<<<<<<<<<<<<<<<






USA.gov is the U.S. government's official web portal to all federal, state and local government web resources and services.